Weather History for Newark Heath, OH

Change the Weather History Date:

Saturday, February 23, 2013

  Actual Average Record
Temperature  
Mean Temperature 34 °F -  
Max Temperature 41 °F 45 °F 64 °F (1984)
Min Temperature 28 °F 25 °F -6 °F (1978)
Degree Days  
Heating Degree Days 30    
Moisture  
Dew Point 28 °F    
Average Humidity 73    
Maximum Humidity 89    
Minimum Humidity 55    
Precipitation  
Precipitation 0.00 in - - ()
Sea Level Pressure  
Sea Level Pressure 29.94 in    
Wind  
Wind Speed 3 mph (WSW)    
Max Wind Speed 13 mph    
Max Gust Speed 17 mph    
Visibility 9 miles    
Events      
Averages and records for this station are not official NWS values.
T = Trace of Precipitation, MM = Missing Value Source: NWS Daily Summary

Daily Weather History Graph

Daily Weather History Graph

Search for Another Location

Airport:

Trip Planner

Search our weather history database for the weather conditions in past years. The results will help you decide how hot, cold, wet, or windy it might be!

Date:

Astronomy

Feb. 23, 2013 Rise Set
Actual Time 7:11 AM EST 6:15 PM EST
Civil Twilight 6:44 AM EST 6:42 PM EST
Nautical Twilight 6:12 AM EST 7:14 PM EST
Astronomical Twilight 5:41 AM EST 7:45 PM EST
Moon 4:24 PM EST (2/23) 5:33 AM EST (2/23)
Length of Visible Light 11h 58m
Length of Day
11h 03m
Waxing Gibbous, 95% of the Moon is Illuminated
Feb 23
Waxing Gibbous
Feb 25
Full
Mar 4
Last Quarter
Mar 11
New
Mar 19
First Quarter

Hourly Weather History & Observations

Time (EST) Temp. Windchill Dew Point Humidity Pressure Visibility Wind Dir Wind Speed Gust Speed Precip Events Conditions
12:54 AM 37.0 °F - 32.0 °F 82% 29.99 in 10.0 mi Calm Calm - N/A   Overcast
1:54 AM 36.0 °F - 33.1 °F 89% 29.98 in 7.0 mi Calm Calm - N/A   Overcast
2:54 AM 35.1 °F - 32.0 °F 89% 29.96 in 6.0 mi Calm Calm - N/A   Overcast
3:54 AM 36.0 °F - 32.0 °F 86% 29.95 in 8.0 mi Calm Calm - N/A   Overcast
4:54 AM 36.0 °F - 32.0 °F 86% 29.96 in 7.0 mi Calm Calm - N/A   Overcast
5:54 AM 36.0 °F 33.3 °F 32.0 °F 86% 29.96 in 7.0 mi SSW 3.5 mph - N/A   Overcast
6:54 AM 35.1 °F - 30.9 °F 85% 29.95 in 8.0 mi Calm Calm - N/A   Overcast
7:54 AM 36.0 °F 33.3 °F 30.9 °F 82% 29.96 in 9.0 mi SW 3.5 mph - N/A   Overcast
8:54 AM 37.0 °F 34.5 °F 32.0 °F 82% 29.96 in 9.0 mi WSW 3.5 mph - N/A   Overcast
9:54 AM 37.0 °F 29.8 °F 30.0 °F 76% 29.96 in 10.0 mi West 10.4 mph - N/A   Overcast
10:54 AM 39.0 °F 32.8 °F 28.0 °F 65% 29.95 in 10.0 mi West 9.2 mph - N/A   Mostly Cloudy
11:54 AM 37.0 °F 31.0 °F 27.0 °F 67% 29.94 in 10.0 mi SW 8.1 mph - N/A   Overcast
12:50 PM 39.2 °F 32.5 °F 26.6 °F 61% 29.92 in 10.0 mi WSW 10.4 mph - N/A   Mostly Cloudy
12:54 PM 39.9 °F 32.5 °F 27.0 °F 60% 29.94 in 10.0 mi WSW 12.7 mph - N/A   Mostly Cloudy
1:54 PM 39.9 °F 33.4 °F 27.0 °F 60% 29.92 in 10.0 mi WSW 10.4 mph 17.3 mph N/A   Mostly Cloudy
2:54 PM 39.9 °F 37.8 °F 25.0 °F 55% 29.91 in 10.0 mi SW 3.5 mph - N/A   Clear
3:54 PM 41.0 °F 36.4 °F 26.1 °F 55% 29.89 in 10.0 mi WSW 6.9 mph - N/A   Clear
4:54 PM 39.9 °F 33.4 °F 25.0 °F 55% 29.91 in 10.0 mi SW 10.4 mph - N/A   Clear
5:54 PM 37.9 °F 33.5 °F 25.0 °F 60% 29.91 in 10.0 mi West 5.8 mph - N/A   Clear
6:54 PM 35.1 °F 31.0 °F 24.1 °F 64% 29.92 in 10.0 mi West 4.6 mph - N/A   Clear
7:54 PM 28.9 °F - 24.1 °F 82% 29.92 in 10.0 mi Calm Calm - N/A   Clear
8:54 PM 32.0 °F 24.8 °F 24.1 °F 73% 29.91 in 10.0 mi NNW 8.1 mph - N/A   Clear
9:54 PM 30.9 °F - 23.0 °F 72% 29.91 in 10.0 mi Calm Calm - N/A   Clear
10:54 PM 30.0 °F - 23.0 °F 75% 29.91 in 10.0 mi Calm Calm - N/A   Clear
11:54 PM 30.9 °F 26.2 °F 24.1 °F 76% 29.93 in 9.0 mi WNW 4.6 mph - N/A   Clear